Starlink 31455

operational
NORAD ID: 59309 Int'l Des: 2024-056 Owner: SPXS Country: US Constellation: starlink
LEOCIRCULAR

Über Starlink 31455

Beschreibung wird geladen...

Live-Position

3D-Globus wird geladen...

Nächste Überflüge

Höhenverlauf

Altitude vs Time

uPlot chart will show altitude changes over time

Zweizeiliger Elementsatz

1 59309U 24056P 25352.23422354 -.00001674 00000-0 -51359-4 0 9992
2 59309 42.9980 327.5364 0000152 123.3269 236.7597 15.27576910 98733
Epoch: 18. Dez. 2025 • Age: 11 hours

Aktueller Status

Höhe 483.9 km
Geschwindigkeit 7.63 km/s
Subsatellitenpunkt 31.96°N, 26.65°E
Startdatum 24. März 2024
Alter 1.7 years
Typ internet

Technische Details

Klassifizierung Payload
Masse 730.00 kg
Trockenmasse 700.00 kg
Gesamtmasse 730.00 kg
Länge 0.30 m
Durchmesser 4.10 m
Spannweite 29.00 m
Form Box + pan
Hersteller SPXS
Bus-Typ Starlink V2M
Phasenstatus In Orbit
Besitzer/Staat SPXS/US

Große Konstellationen

Loading constellations...